Погода в Мао

Доминиканская Республика     19°33′31″N   71°04′10″W
темп.,
°C
ветер,
м/с
пор.,
м/с
влажн.,
%
обл.,
%
осадки,
мм/ч
давл.,
гПа
погр.,
м
7 мая, пт
пт723:00+22вюв512730 0.0 1017524
02:00+20вюв49850 0.0 1016307
05:00+19вюв47880 0.0 1016200
08:00+24вюв47640 0.0 1017470
11:00+32вюв45320 0.0 10161780
14:00+35в54220 0.0 10132809
17:00+34ссв543053 0.0 10112075
20:00+27в26545 0.1 1015513
8 мая, сб
сб823:00+22вюв25742 0.0 1017129
02:00+20юв24834 0.0 1016116
05:00+19вюв34875 0.0 101693
08:00+24вюв446471 0.0 1017336
11:00+32в453397 0.0 10161534
14:00+36в542098 0.0 10132883
17:00+33св663354 0.0 10121589
20:00+22юв118699 2.8 101627
9 мая, вс
вс923:00+21вюв4891100 2.0 1018282
02:00+20вюв3793100 2.3 1017191
05:00+20вюв369484 0.0 1017188
08:00+22вюв47805 0.0 1018360
11:00+31вюв56345 0.0 10181572
14:00+35в66281 0.0 10152661
17:00+31всв574364 0.1 10141147
20:00+23вюв49813 2.9 1017268
10 мая, пн
пн1023:00+22вюв412875 0.0 1019453
02:00+21вюв411936 0.0 1017410
05:00+20вюв511934 0.0 1017343
08:00+24вюв510730 0.0 1018595
11:00+31вюв78443 0.0 10171594
14:00+34вюв883493 0.1 10132662
17:00+30вюв5946100 0.1 10141170
20:00+25вюв5116878 0.2 1017505
11 мая, вт
вт1123:00+23вюв4978100 0.0 1018322
02:00+22вюв4978100 0.0 1017295
05:00+22вюв3775100 0.0 1016252
08:00+24вюв5966100 0.0 1017476
11:00+30вюв4642100 0.0 10171296
14:00+33в4533100 0.0 10152392
17:00+31вюв1337100 0.0 10141459
20:00+26вюв51162100 0.1 1017574